EW3714 Weather Reports


Display with metric or nautical units.
time (UTC)temp
F
wind
direction
speed
MPH
gust
MPH
rain 1hr
in
rain 24hr
in
rain mn
in
humidity
%
barometer
mb
20260510223124 90 349 0.0 2.0 0.00 0.00 0.00 56 1012.0
20260510222621 89 60 0.0 2.0 0.00 0.00 0.00 56 1012.0
20260510222118 89 148 0.0 3.0 0.00 0.00 0.00 58 1012.0
20260510221619 90 216 1.0 3.0 0.00 0.00 0.00 56 1012.2
20260510221115 90 224 0.0 2.0 0.00 0.00 0.00 58 1012.0
20260510220613 90 103 0.0 3.0 0.00 0.00 0.00 56 1012.1
20260510220108 90 164 0.0 3.0 0.00 0.00 0.00 56 1012.1
20260510215605 91 83 0.0 2.0 0.00 0.00 0.00 56 1012.2
20260510215104 91 191 1.0 2.0 0.00 0.00 0.00 53 1012.5
20260510214600 90 297 0.0 1.0 0.00 0.00 0.00 54 1012.7
20260510214056 91 45 0.0 2.0 0.00 0.00 0.00 54 1012.7
20260510213554 91 194 1.0 3.0 0.00 0.00 0.00 54 1012.8
20260510213049 92 221 1.0 2.0 0.00 0.00 0.00 53 1012.8
20260510212546 92 212 2.0 2.0 0.00 0.00 0.00 53 1012.8
20260510212044 92 0 0.0 2.0 0.00 0.00 0.00 52 1013.2
20260510211540 92 184 1.0 3.0 0.00 0.00 0.00 53 1013.2
20260510211040 93 142 1.0 2.0 0.00 0.00 0.00 51 1013.2
20260510210537 92 237 0.0 2.0 0.00 0.00 0.00 52 1013.2
20260510210032 92 227 2.0 2.0 0.00 0.00 0.00 53 1013.4
20260510205532 92 66 0.0 3.0 0.00 0.00 0.00 52 1013.3
20260510205028 95 152 1.0 2.0 0.00 0.00 0.00 50 1013.1
20260510204524 95 291 0.0 1.0 0.00 0.00 0.00 50 1013.2
20260510204021 96 44 0.0 2.0 0.00 0.00 0.00 48 1013.2
20260510203518 96 304 0.0 2.0 0.00 0.00 0.00 48 1013.2
20260510203014 96 280 0.0 2.0 0.00 0.00 0.00 49 1013.1
20260510202513 95 110 0.0 2.0 0.00 0.00 0.00 49 1013.1
20260510202010 95 18 1.0 4.0 0.00 0.00 0.00 50 1013.5
20260510201508 95 13 0.0 2.0 0.00 0.00 0.00 50 1013.2
20260510201004 95 180 2.0 3.0 0.00 0.00 0.00 51 1013.2
20260510200459 94 203 1.0 3.0 0.00 0.00 0.00 51 1013.2
20260510195957 93 114 1.0 2.0 0.00 0.00 0.00 53 1013.3
20260510195455 96 167 0.0 2.0 0.00 0.00 0.00 50 1013.3
20260510194950 93 232 0.0 4.0 0.00 0.00 0.00 51 1013.5
20260510194447 95 204 2.0 3.0 0.00 0.00 0.00 50 1013.4
20260510193942 93 202 2.0 3.0 0.00 0.00 0.00 51 1013.5
20260510193438 94 113 0.0 2.0 0.00 0.00 0.00 53 1013.6
20260510192933 93 42 1.0 2.0 0.00 0.00 0.00 53 1013.4
20260510192429 93 39 1.0 3.0 0.00 0.00 0.00 52 1013.5
20260510191925 93 139 1.0 2.0 0.00 0.00 0.00 52 1013.6
20260510191421 93 24 1.0 2.0 0.00 0.00 0.00 52 1013.8
20260510190918 94 58 1.0 2.0 0.00 0.00 0.00 51 1013.7
20260510190416 92 216 1.0 2.0 0.00 0.00 0.00 54 1013.7
20260510185912 92 159 1.0 2.0 0.00 0.00 0.00 55 1013.8
20260510185410 91 136 1.0 3.0 0.00 0.00 0.00 55 1013.6
20260510184907 91 16 1.0 3.0 0.00 0.00 0.00 55 1013.9
20260510184404 91 20 2.0 3.0 0.00 0.00 0.00 55 1013.8
20260510183903 90 99 1.0 5.0 0.00 0.00 0.00 58 1013.8
20260510183400 91 80 2.0 3.0 0.00 0.00 0.00 58 1013.7
20260510182855 89 6 1.0 3.0 0.00 0.00 0.00 58 1014.0
20260510182352 91 177 2.0 3.0 0.00 0.00 0.00 56 1014.0
20260510181848 89 164 2.0 4.0 0.00 0.00 0.00 58 1014.1
20260510181345 90 128 2.0 2.0 0.00 0.00 0.00 57 1014.3
20260510180841 89 104 2.0 2.0 0.00 0.00 0.00 58 1014.1
20260510180338 89 95 0.0 3.0 0.00 0.00 0.00 59 1014.2
20260510175835 89 178 0.0 2.0 0.00 0.00 0.00 58 1014.4
20260510175331 89 107 2.0 2.0 0.00 0.00 0.00 58 1014.6
20260510174827 88 110 2.0 4.0 0.00 0.00 0.00 62 1014.4
20260510174326 87 159 1.0 3.0 0.00 0.00 0.00 61 1014.5
20260510173821 87 67 1.0 2.0 0.00 0.00 0.00 61 1014.8
20260510173317 87 122 1.0 3.0 0.00 0.00 0.00 64 1014.9
20260510172813 88 163 1.0 2.0 0.00 0.00 0.00 62 1015.0
20260510172310 87 130 2.0 2.0 0.00 0.00 0.00 63 1015.0
20260510171806 86 81 1.0 2.0 0.00 0.00 0.00 65 1015.2
20260510171304 86 145 0.0 2.0 0.00 0.00 0.00 64 1015.2
20260510170801 87 60 0.0 3.0 0.00 0.00 0.00 63 1015.2
20260510170257 87 118 1.0 2.0 0.00 0.00 0.00 63 1015.4
20260510165752 85 78 2.0 4.0 0.00 0.00 0.00 67 1015.5
20260510165248 84 60 2.0 2.0 0.00 0.00 0.00 68 1015.4
20260510164746 83 154 2.0 3.0 0.00 0.00 0.00 69 1015.2
20260510164243 83 184 1.0 3.0 0.00 0.00 0.00 70 1015.4
20260510163743 82 179 1.0 2.0 0.00 0.00 0.00 71 1015.3
20260510163240 81 145 1.0 2.0 0.00 0.00 0.00 72 1015.3
20260510162739 80 67 1.0 2.0 0.00 0.00 0.00 76 1015.5
20260510162237 80 65 2.0 3.0 0.00 0.00 0.00 75 1015.4
20260510161733 80 124 1.0 3.0 0.00 0.00 0.00 77 1015.1
20260510161229 79 139 0.0 2.0 0.00 0.00 0.00 77 1015.4
20260510160726 80 49 2.0 2.0 0.00 0.00 0.00 76 1015.3
20260510160226 79 149 2.0 3.0 0.00 0.00 0.00 77 1015.4
20260510155723 79 188 0.0 4.0 0.00 0.00 0.00 77 1015.2
20260510155218 79 148 2.0 3.0 0.00 0.00 0.00 78 1015.2
20260510154714 78 123 2.0 3.0 0.00 0.00 0.00 78 1015.1
20260510154211 79 57 2.0 2.0 0.00 0.00 0.00 79 1015.1
20260510153705 79 88 1.0 2.0 0.00 0.00 0.00 79 1015.1
20260510153202 78 117 1.0 4.0 0.00 0.00 0.00 79 1015.0
20260510152659 78 99 1.0 2.0 0.00 0.00 0.00 78 1014.9
20260510152155 78 61 0.0 2.0 0.00 0.00 0.00 80 1015.1
20260510151651 78 131 1.0 2.0 0.00 0.00 0.00 79 1015.1
20260510151150 78 57 1.0 2.0 0.00 0.00 0.00 79 1015.0
20260510150645 77 141 2.0 2.0 0.00 0.00 0.00 80 1015.2
20260510150141 77 87 1.0 2.0 0.00 0.00 0.00 80 1014.9
20260510145638 77 126 2.0 3.0 0.00 0.00 0.00 80 1015.0
20260510145134 76 54 2.0 2.0 0.00 0.00 0.00 81 1014.6
20260510144630 76 127 0.0 2.0 0.00 0.00 0.00 81 1014.9
20260510144126 76 112 1.0 3.0 0.00 0.00 0.00 82 1014.9
20260510143622 75 58 1.0 3.0 0.00 0.00 0.00 83 1014.5
20260510143119 75 89 0.0 2.0 0.00 0.00 0.00 83 1014.6
20260510142615 75 113 0.0 2.0 0.00 0.00 0.00 84 1014.6
20260510142112 75 126 0.0 2.0 0.00 0.00 0.00 84 1014.6
20260510141609 74 116 2.0 2.0 0.00 0.00 0.00 84 1014.4
20260510141107 74 121 2.0 2.0 0.00 0.00 0.00 84 1014.4
20260510140603 74 115 2.0 2.0 0.00 0.00 0.00 85 1014.4
20260510135558 73 95 1.0 2.0 0.00 0.00 0.00 85 1014.3
20260510135055 73 39 1.0 2.0 0.00 0.00 0.00 85 1014.3
20260510134552 73 100 2.0 2.0 0.00 0.00 0.00 86 1014.1
20260510134048 73 107 1.0 2.0 0.00 0.00 0.00 86 1014.0
20260510133544 73 127 0.0 2.0 0.00 0.00 0.00 86 1013.9
20260510133040 73 144 2.0 2.0 0.00 0.00 0.00 87 1013.7
20260510132537 72 123 1.0 2.0 0.00 0.00 0.00 87 1013.9
20260510132034 72 73 1.0 2.0 0.00 0.00 0.00 87 1013.9
20260510131532 71 126 0.0 2.0 0.00 0.00 0.00 88 1013.7
20260510131029 71 75 2.0 2.0 0.00 0.00 0.00 89 1013.6
20260510130525 71 65 2.0 3.0 0.00 0.00 0.00 90 1013.4
20260510130023 71 70 2.0 2.0 0.00 0.00 0.00 90 1013.4
20260510125519 71 54 2.0 3.0 0.00 0.00 0.00 90 1013.4
20260510125015 70 56 2.0 3.0 0.00 0.00 0.00 91 1013.3
20260510124512 70 51 2.0 2.0 0.00 0.00 0.00 91 1013.1
20260510124009 70 54 2.0 3.0 0.00 0.00 0.00 91 1012.8
20260510123504 70 37 2.0 3.0 0.00 0.00 0.00 92 1013.1
20260510123000 69 71 2.0 2.0 0.00 0.00 0.00 92 1012.9
20260510122456 69 52 2.0 3.0 0.00 0.00 0.00 92 1012.8
20260510121952 69 53 3.0 4.0 0.00 0.00 0.00 92 1012.7
20260510121450 69 48 3.0 4.0 0.00 0.00 0.00 92 1012.8
20260510120947 69 40 2.0 2.0 0.00 0.00 0.00 91 1012.7
20260510120444 69 77 2.0 2.0 0.00 0.00 0.00 91 1012.7
20260510115940 69 78 2.0 3.0 0.00 0.00 0.00 91 1012.5
20260510115437 69 83 2.0 2.0 0.00 0.00 0.00 91 1012.5
20260510114933 69 94 0.0 2.0 0.00 0.00 0.00 91 1012.4
20260510114430 69 78 0.0 2.0 0.00 0.00 0.00 90 1012.3
20260510113925 70 84 2.0 2.0 0.00 0.00 0.00 90 1012.3
20260510113421 70 78 1.0 3.0 0.00 0.00 0.00 91 1012.3
20260510112919 69 81 1.0 2.0 0.00 0.00 0.00 90 1012.3
20260510112416 69 142 2.0 4.0 0.00 0.00 0.00 90 1012.2
20260510111912 70 72 2.0 2.0 0.00 0.00 0.00 89 1012.1
20260510111408 70 71 1.0 2.0 0.00 0.00 0.00 90 1012.2
20260510110904 70 84 2.0 2.0 0.00 0.00 0.00 89 1012.2
20260510110401 70 88 2.0 2.0 0.00 0.00 0.00 89 1012.3
20260510105857 70 79 3.0 3.0 0.00 0.00 0.00 89 1011.9
20260510105356 70 97 1.0 2.0 0.00 0.00 0.00 89 1012.0
20260510104853 70 74 2.0 2.0 0.00 0.00 0.00 88 1012.0
20260510104350 70 83 2.0 2.0 0.00 0.00 0.00 87 1012.0
20260510103846 71 77 2.0 2.0 0.00 0.00 0.00 88 1011.8
20260510103343 71 86 2.0 2.0 0.00 0.00 0.00 87 1011.8
20260510102839 71 84 2.0 3.0 0.00 0.00 0.00 87 1011.6
20260510102335 71 98 1.0 2.0 0.00 0.00 0.00 86 1011.4
20260510101832 71 102 2.0 4.0 0.00 0.00 0.00 86 1011.5
20260510101331 71 89 0.0 3.0 0.00 0.00 0.00 86 1011.7
20260510100826 71 115 2.0 2.0 0.00 0.00 0.00 86 1011.4
20260510100324 71 83 1.0 2.0 0.00 0.00 0.00 86 1011.5
20260510095820 71 121 1.0 2.0 0.00 0.00 0.00 86 1011.6
20260510095315 71 68 3.0 3.0 0.00 0.00 0.00 87 1011.6
20260510094815 71 76 2.0 2.0 0.00 0.00 0.00 88 1011.5
20260510094310 71 97 2.0 2.0 0.00 0.00 0.00 87 1011.6
20260510093807 71 79 2.0 2.0 0.00 0.00 0.00 87 1011.3
20260510093303 71 115 1.0 2.0 0.00 0.00 0.00 86 1011.4
20260510092759 71 140 1.0 2.0 0.00 0.00 0.00 86 1011.5
20260510092255 71 83 1.0 2.0 0.00 0.00 0.00 86 1011.3
20260510091750 71 108 2.0 2.0 0.00 0.00 0.00 86 1011.4
20260510091248 71 106 1.0 2.0 0.00 0.00 0.00 85 1011.6
20260510090745 71 102 1.0 2.0 0.00 0.00 0.00 85 1011.6
20260510090242 71 104 1.0 2.0 0.00 0.00 0.00 85 1011.5
20260510085737 71 96 0.0 2.0 0.00 0.00 0.00 85 1011.6
20260510085231 71 95 1.0 2.0 0.00 0.00 0.00 85 1011.6
20260510084728 71 93 1.0 2.0 0.00 0.00 0.00 85 1011.6
20260510084225 71 100 2.0 2.0 0.00 0.00 0.00 84 1011.6
20260510083721 71 138 0.0 2.0 0.00 0.00 0.00 84 1011.6
20260510083219 71 99 1.0 2.0 0.00 0.00 0.00 84 1011.5
20260510082714 71 80 1.0 2.0 0.00 0.00 0.00 84 1012.0
20260510082211 71 104 1.0 2.0 0.00 0.00 0.00 84 1011.8
20260510081710 71 92 2.0 2.0 0.00 0.00 0.00 84 1011.9
20260510081207 71 79 1.0 2.0 0.00 0.00 0.00 83 1011.8
20260510080707 71 98 1.0 2.0 0.00 0.00 0.00 83 1012.0
20260510080203 72 93 1.0 2.0 0.00 0.00 0.00 83 1012.0
20260510075700 72 71 2.0 2.0 0.00 0.00 0.00 83 1011.9
20260510075158 72 108 1.0 2.0 0.00 0.00 0.00 82 1012.0
20260510074655 72 102 1.0 2.0 0.00 0.00 0.00 81 1011.9
20260510074150 72 96 1.0 2.0 0.00 0.00 0.00 81 1011.8
20260510073647 72 101 1.0 2.0 0.00 0.00 0.00 80 1011.8
20260510073143 72 113 0.0 3.0 0.00 0.00 0.00 80 1011.9
20260510072639 72 88 0.0 2.0 0.00 0.00 0.00 80 1011.9
20260510072136 73 89 2.0 2.0 0.00 0.00 0.00 80 1012.1
20260510071632 73 68 2.0 2.0 0.00 0.00 0.00 80 1012.0
20260510071130 73 93 2.0 2.0 0.00 0.00 0.00 80 1012.0
20260510070626 73 79 2.0 2.0 0.00 0.00 0.00 80 1011.9
20260510070124 73 88 2.0 2.0 0.00 0.00 0.00 79 1012.1
20260510065620 73 94 1.0 2.0 0.00 0.00 0.00 79 1011.9
20260510065116 73 82 1.0 2.0 0.00 0.00 0.00 79 1011.9
20260510064612 73 94 1.0 2.0 0.00 0.00 0.00 79 1011.9
20260510064109 73 67 1.0 2.0 0.00 0.00 0.00 78 1011.9
20260510063606 73 97 1.0 2.0 0.00 0.00 0.00 78 1011.9
20260510063103 73 87 1.0 2.0 0.00 0.00 0.00 78 1011.9
20260510062559 73 81 1.0 2.0 0.00 0.00 0.00 78 1011.9
20260510062055 73 82 1.0 2.0 0.00 0.00 0.00 77 1012.0
20260510061551 74 80 1.0 2.0 0.00 0.00 0.00 76 1011.8
20260510061048 74 92 1.0 2.0 0.00 0.00 0.00 76 1011.6
20260510060544 74 81 1.0 2.0 0.00 0.00 0.00 76 1011.6
20260510060040 74 88 1.0 2.0 0.00 0.00 0.00 77 1011.7
20260510055537 74 86 1.0 2.0 0.00 0.00 0.00 76 1011.7
20260510055035 74 82 1.0 2.0 0.00 0.00 0.00 76 1011.9
20260510054531 74 64 2.0 2.0 0.00 0.00 0.00 76 1011.7
20260510054026 74 89 1.0 2.0 0.00 0.00 0.00 77 1011.7
20260510053521 74 80 1.0 2.0 0.00 0.00 0.00 77 1011.8
20260510053018 75 88 2.0 2.0 0.00 0.00 0.00 77 1011.7
20260510052514 75 74 1.0 2.0 0.00 0.00 0.00 77 1011.7
20260510052010 75 75 1.0 2.0 0.00 0.00 0.00 77 1011.9
20260510051506 75 86 1.0 2.0 0.00 0.00 0.00 77 1011.6
20260510051002 75 93 2.0 2.0 0.00 0.00 0.00 77 1011.6
20260510050500 75 72 2.0 2.0 0.00 0.00 0.00 77 1011.7
20260510045956 75 79 1.0 2.0 0.00 0.02 0.02 77 1011.7
20260510045454 76 74 1.0 1.0 0.00 0.02 0.02 78 1011.6
20260510044950 76 65 1.0 1.0 0.00 0.02 0.02 78 1011.7
20260510044447 76 99 1.0 2.0 0.00 0.02 0.02 78 1011.6
20260510043944 76 120 0.0 1.0 0.00 0.02 0.02 78 1011.5
20260510043439 76 106 0.0 1.0 0.00 0.02 0.02 79 1011.7
20260510042938 76 79 0.0 2.0 0.00 0.02 0.02 79 1011.7
20260510042434 76 102 1.0 1.0 0.00 0.02 0.02 78 1011.5
20260510041930 76 89 0.0 1.0 0.00 0.02 0.02 78 1011.6
20260510041427 76 95 1.0 2.0 0.00 0.02 0.02 78 1011.5
20260510040925 76 78 1.0 2.0 0.00 0.02 0.02 78 1011.3
20260510040421 77 95 1.0 2.0 0.00 0.02 0.02 78 1011.4
20260510035917 77 89 2.0 2.0 0.00 0.02 0.02 78 1011.5
20260510035414 77 89 1.0 1.0 0.00 0.02 0.02 78 1011.4
20260510034908 77 70 1.0 2.0 0.00 0.02 0.02 79 1011.5
20260510034407 77 89 0.0 1.0 0.00 0.02 0.02 78 1011.2
20260510033908 77 78 1.0 1.0 0.00 0.02 0.02 78 1011.2
20260510033404 77 100 1.0 2.0 0.00 0.02 0.02 78 1011.1
20260510032901 78 106 0.0 1.0 0.00 0.02 0.02 78 1011.2
20260510032358 78 102 0.0 1.0 0.00 0.02 0.02 78 1011.1
20260510031853 78 89 1.0 1.0 0.00 0.02 0.02 78 1011.0
20260510031349 78 112 1.0 2.0 0.00 0.02 0.02 77 1011.1
20260510030849 78 75 1.0 2.0 0.00 0.02 0.02 77 1011.0
20260510030345 79 89 0.0 1.0 0.00 0.02 0.02 77 1010.9
20260510025843 79 82 0.0 1.0 0.00 0.02 0.02 77 1010.9
20260510025340 79 95 1.0 1.0 0.00 0.02 0.02 77 1010.8
20260510024837 79 95 0.0 1.0 0.00 0.02 0.02 76 1010.8
20260510024334 79 57 1.0 1.0 0.00 0.02 0.02 76 1010.8
20260510023830 80 65 0.0 1.0 0.00 0.02 0.02 75 1010.6
20260510023326 80 96 0.0 1.0 0.00 0.02 0.02 75 1010.4
20260510022824 80 88 2.0 2.0 0.00 0.02 0.02 75 1010.2
20260510022323 80 83 2.0 2.0 0.00 0.02 0.02 75 1010.2
20260510021822 80 106 0.0 2.0 0.00 0.02 0.02 74 1010.4
20260510021320 80 109 1.0 2.0 0.00 0.02 0.02 73 1010.2
20260510020816 81 94 0.0 2.0 0.00 0.02 0.02 73 1010.0
20260510020311 80 46 2.0 2.0 0.00 0.02 0.02 73 1009.9
20260510015807 80 89 1.0 2.0 0.00 0.02 0.02 72 1010.0
20260510015306 81 82 1.0 2.0 0.00 0.02 0.02 72 1009.8
20260510014758 81 98 1.0 1.0 0.00 0.02 0.02 72 1009.7
20260510014256 81 94 1.0 2.0 0.00 0.02 0.02 71 1009.6
20260510013752 82 96 0.0 1.0 0.00 0.02 0.02 69 1009.7
20260510013248 82 110 0.0 1.0 0.00 0.02 0.02 69 1009.6
20260510012743 82 60 1.0 1.0 0.00 0.02 0.02 68 1009.7
20260510012238 82 89 0.0 1.0 0.00 0.02 0.02 67 1009.6
20260510011737 83 95 1.0 1.0 0.00 0.02 0.02 66 1009.5
20260510011233 83 77 1.0 2.0 0.00 0.02 0.02 65 1009.6
20260510010730 84 35 2.0 2.0 0.00 0.02 0.02 64 1009.5
20260510010227 84 100 1.0 2.0 0.00 0.02 0.02 63 1009.4
20260510005724 84 95 0.0 2.0 0.00 0.02 0.02 61 1009.3
20260510005220 85 107 1.0 2.0 0.00 0.02 0.02 60 1009.5
20260510004718 85 77 1.0 2.0 0.00 0.02 0.02 60 1009.3
20260510004216 86 89 2.0 2.0 0.00 0.02 0.02 59 1009.1
20260510003713 86 81 0.0 2.0 0.00 0.02 0.02 59 1009.2
20260510003209 86 146 1.0 2.0 0.00 0.02 0.02 57 1009.3
20260510002708 86 81 0.0 1.0 0.00 0.02 0.02 59 1009.3
20260510002206 86 151 1.0 2.0 0.00 0.02 0.02 58 1009.0
20260510001702 87 84 0.0 2.0 0.00 0.02 0.02 58 1009.1
20260510001201 87 137 0.0 2.0 0.00 0.02 0.02 56 1009.1
20260510000656 87 104 0.0 2.0 0.00 0.02 0.02 52 1009.2
20260510000154 87 126 0.0 2.0 0.00 0.02 0.02 51 1009.0
20260509235650 88 67 0.0 1.0 0.00 0.02 0.02 50 1008.9
20260509235147 88 117 0.0 1.0 0.00 0.02 0.02 47 1009.0
20260509234643 88 70 1.0 2.0 0.00 0.02 0.02 47 1008.9
20260509234140 88 160 1.0 2.0 0.00 0.02 0.02 46 1008.9
20260509233638 88 50 0.0 2.0 0.00 0.02 0.02 47 1008.8
20260509233135 88 62 0.0 2.0 0.00 0.02 0.02 46 1008.9
20260509232631 88 137 1.0 2.0 0.00 0.02 0.02 46 1008.9
20260509232128 88 138 1.0 1.0 0.00 0.02 0.02 45 1008.8
20260509231625 88 44 0.0 0.0 0.00 0.02 0.02 45 1008.7
20260509231123 89 113 0.0 0.0 0.00 0.02 0.02 45 1008.8
20260509230619 89 175 0.0 2.0 0.00 0.02 0.02 45 1008.7
20260509230116 89 201 0.0 1.0 0.00 0.02 0.02 45 1008.7
20260509225612 89 85 0.0 1.0 0.00 0.02 0.02 44 1008.8
20260509225108 89 129 0.0 1.0 0.00 0.02 0.02 44 1008.7
20260509224603 89 89 0.0 2.0 0.00 0.02 0.02 43 1008.9
20260509224100 89 32 0.0 2.0 0.00 0.02 0.02 42 1008.9
20260509223557 89 150 0.0 1.0 0.00 0.02 0.02 43 1008.8